EDT,Max TemperatureF,Mean TemperatureF,Min TemperatureF,Max Dew PointF,MeanDew PointF,Min DewpointF,Max Humidity, Mean Humidity, Min Humidity, Max Sea Level PressureIn, Mean Sea Level PressureIn, Min Sea Level PressureIn, Max VisibilityMiles, Mean VisibilityMiles, Min VisibilityMiles, Max Wind SpeedMPH, Mean Wind SpeedMPH, Max Gust SpeedMPH,PrecipitationIn, CloudCover, Events, WindDirDegrees
2012-8-1,91,82,73,76,73,71,100,86,56,29.93,29.90,29.86,10,6,1,12,2,15,0.03,5,,262
2012-8-2,94,83,71,76,71,66,94,78,52,29.96,29.92,29.88,10,8,4,28,4,37,0.05,0,,202
2012-8-3,93,81,68,75,71,66,90,75,52,30.06,30.00,29.96,10,9,5,15,4,21,0.00,0,,166
2012-8-4,91,82,73,74,72,71,93,78,49,30.20,30.13,30.06,10,9,5,17,4,23,0.08,1,,128
2012-8-5,88,81,74,75,73,71,94,82,69,30.22,30.17,30.12,10,9,2,17,4,23,0.14,2,Rain,106
2012-8-6,90,82,73,76,73,71,94,88,59,30.15,30.11,30.03,10,6,0,17,1,22,0.74,5,Fog-Rain,133
2012-8-7,87,81,75,76,74,71,94,89,70,30.07,30.03,29.99,10,6,0,15,2,20,0.01,5,Fog-Rain,174
2012-8-8,90,81,71,74,72,69,94,82,52,30.04,30.00,29.95,10,9,6,23,3,32,0.15,4,Rain,182
2012-8-9,91,81,70,75,71,66,94,80,55,30.04,29.95,29.86,10,8,2,25,4,36,0.32,3,Rain,171
2012-8-10,87,80,72,74,72,70,94,85,61,29.93,29.89,29.86,10,9,2,17,7,23,0.22,6,Rain,213
2012-8-11,82,77,72,73,71,69,94,88,74,29.97,29.93,29.88,10,8,2,18,5,23,0.38,5,Rain,219
2012-8-12,87,79,71,73,71,69,93,83,55,30.02,29.98,29.94,10,8,4,8,1,12,0.00,4,,147
2012-8-13,90,81,71,73,69,58,100,79,34,30.06,30.01,29.96,10,5,0,13,2,18,0.00,2,Fog,242
2012-8-14,92,80,68,73,68,66,94,79,49,29.99,29.96,29.89,10,6,1,15,4,21,0.03,1,,240
2012-8-15,91,82,73,73,71,69,93,79,56,29.99,29.95,29.91,10,8,6,15,5,20,0.00,3,,241
2012-8-16,92,82,72,71,69,66,93,72,47,30.04,30.00,29.95,10,8,4,9,3,13,0.00,0,,80
2012-8-17,92,81,70,72,69,64,97,76,47,30.01,29.92,29.86,10,7,1,33,3,40,0.30,2,Rain,209
2012-8-18,89,80,71,73,70,68,93,83,52,29.92,29.89,29.82,10,6,1,10,2,14,0.00,4,,219
2012-8-19,84,78,72,72,71,69,93,84,65,29.94,29.88,29.84,10,8,1,14,3,20,0.47,4,Rain,274
2012-8-20,86,80,73,72,71,69,93,84,61,29.97,29.90,29.86,10,9,6,12,4,14,0.03,5,Rain,243
2012-8-21,84,78,71,72,71,67,93,85,63,30.05,30.00,29.95,10,7,1,13,2,14,0.01,5,Rain,122
2012-8-22,85,78,71,72,70,68,93,86,59,30.09,30.05,30.01,10,8,1,9,3,13,0.12,6,Rain,48
2012-8-23,85,78,71,72,70,68,93,84,61,30.13,30.09,30.06,10,8,2,15,4,20,T,6,Rain,36
2012-8-24,83,75,66,70,68,65,90,80,67,30.13,30.10,30.06,10,10,8,13,5,17,0.01,4,Rain,42
2012-8-25,86,75,64,66,62,56,93,69,37,30.16,30.12,30.08,,,,14,4,20,0.00,0,,30
2012-8-26,87,75,63,68,65,62,93,73,48,30.17,30.12,30.07,,,,12,4,15,0.00,0,,46
2012-8-27,89,80,70,74,71,66,94,80,59,30.10,30.05,30.01,,,,16,5,24,T,2,Rain,60
2012-8-28,81,78,75,75,74,73,94,90,79,30.03,30.00,29.96,10,7,2,5,3,6,0.38,8,Rain,113
2012-8-29,90,82,73,74,73,71,100,86,59,30.04,29.98,29.94,10,9,4,14,3,30,0.19,4,Rain,211
2012-8-30,83,78,72,75,72,70,94,85,69,30.17,30.08,29.99,10,10,5,7,1,10,0.00,3,Rain,182
2012-8-31,92,83,73,76,73,71,100,83,52,30.24,30.19,30.12,10,6,0,8,1,10,0.00,4,Fog,225